Regional Weather Roundup
Issued by NWS State College, PA

Home | Current Version | Previous Version | Text Only | Print | Product List | Glossary Off
Versions: 1 2 3 4 5 6 7 8 9 10 11 12 13 14 15 16 17 18 19 20 21 22 23 24 25 26 27 28 29 30 31 32 33 34 35 36 37 38 39 40 41 42 43 44 45 46 47 48 49 50

000
ASUS41 KCTP 282210
RWRCTP

REGIONAL WEATHER ROUNDUP
NATIONAL WEATHER SERVICE STATE COLLEGE PA
600 PM EDT SAT MAR 28 2015

Note: "fair" indicates few or no clouds below 12,000 feet with no
significant weather and/or obstructions to visibility.

* = STATION THAT DOES NOT REPORT PRECIPITATION /E.G. RAIN...SNOW...ETC/
    THUNDER OR FOG.

PAZ002>004-007>009-013>016-020>023-029>032-282300-
WESTERN PENNSYLVANIA

CITY           SKY/WX    TMP DP  RH WIND       PRES   REMARKS
ERIE           SUNNY     26   8  46 W12       30.22R
MEADVILLE      SUNNY     23   7  50 NW9       30.17R WCI  13
FRANKLIN*      SUNNY     23   1  39 NW9       30.16R WCI  13
NEW CASTLE     FAIR      25   5  42 NW14G22   30.22R WCI  13
BEAVER COUNTY  SUNNY     28   5  37 NW15G21   30.17R
BUTLER*        SUNNY     27   7  43 N12G17    30.17R
PITTSBURGH INT MOSUNNY   29   5  36 NW21      30.16R
PITTSBURGH     MOSUNNY   27   1  32 NW13G25   30.14R
INDIANA*       MOSUNNY   27   5  39 NW12G22   30.14R
LATROBE        PTSUNNY   27   7  43 NW9G18    30.16R
WASHINGTON CO* SUNNY     30   7  37 NW9       30.17R
$$

PAZ004>006-010>012-017>019-024>028-033>037-041-042-045-046-049>053-282300-
CENTRAL PENNSYLVANIA

CITY           SKY/WX    TMP DP  RH WIND       PRES   REMARKS
BRADFORD       SUNNY     20   2  45 NW22G29   30.04R WCI   3
DUBOIS         SUNNY     26   1  34 N14G24    30.05R WCI  14
CLEARFIELD     SUNNY     27   2  34 NW16G25   30.05R WCI  15
JOHNSTOWN      CLOUDY    20   8  60 W17       30.01R WCI   5
ALTOONA        CLOUDY    26   7  44 NW20G25   30.05R WCI  12
STATE COLLEGE  MOSUNNY   30   1  29 NW17      30.04R
WILLIAMSPORT   MOSUNNY   31   1  28 N13G21    30.04R
SELINSGROVE    CLOUDY    32   9  38 NW16      30.04R
FT INDIANTOWN  MOSUNNY   29  15  57 VRB7      30.02R
CAPITAL CITY   PTSUNNY   31  12  45 W17G24    30.05R
HARRISBURG     PTSUNNY   33  10  38 NW21G31   30.03R
YORK           CLOUDY    31  11  43 NW17G28   30.04R
$$

PAZ038>040-043-044-047-048-054-055-060>062-067>071-282300-
EASTERN PENNSYLVANIA

CITY           SKY/WX    TMP DP  RH WIND       PRES   REMARKS
SCRANTON       CLOUDY    26   7  44 N18G26    29.99R WCI  13
MOUNT POCONO   CLOUDY    21   8  57 NW22G36   29.88R WCI   5
ALLENTOWN      PTSUNNY   32  12  43 N20G25    29.99R
QUAKERTOWN*    CLOUDY    32  12  43 N12G23    29.97R
READING        PTSUNNY   32  11  41 NW12      30.00R
LANCASTER      FLURRIES  29  20  69 W21G28    30.01R
COATESVILLE    MOCLDY    32  12  43 NW16G22   29.98R
POTTSTOWN      PTSUNNY   32  12  43 NW15G25   29.99R
BLUE BELL      MOSUNNY   36  16  44 N9G17     29.96R
DOYLESTOWN     MOSUNNY   31  12  45 NW14G26   29.95R
WILLOW GROVE   NOT AVBL
NORTH PHILA    CLOUDY    38  11  32 N21G26    29.97R
PHILADELPHIA   CLOUDY    38  10  31 NW20      29.98R
$$



USA.gov is the U.S. government's official web portal to all federal, state and local government web resources and services.